星链-5609 (STARLINK-5609 )

导读 | 豆包AI

STARLINK-5609是美国SpaceX星链计划中的卫星,于2023年1月26日发射升空,隶属于美国太空探索技术公司打造的星链星座网络。星链系统旨在为全球提供覆盖广泛的低延迟互联网服务,该卫星入轨后承担全球通信网络覆盖任务,拓展星链星座的服务能力与覆盖范围,助力全球高速互联网接入布局。

基本信息
目录编号:
55348
目录名称:
STARLINK-5609
国际标识:
2023-013T
轨道中心:
EARTH
卫星名称:
星链-5609
卫星全名:
星链-5609 (STARLINK-5609 )
卫星状态:
在轨 (已飞行1190 天)
发射日期:
2023-01-26 UTC
国别 :
美国 (US)
星等 :
--
轨道信息
数据来源 国际轨道数据
星历时间: 2026-04-30T09:41:40+0800
10小时前
查看轨道信息
半长轴: 6861.197km
偏心率: 0.0001061
轨道倾角: 43.001°
近地点辐角 271.967°
升交点赤经 13.044°
平近点角 88.106°
近地点: 482.332km
远地点: 483.788km
周期: 94.267分钟
每日圈数: 15.275765
详细信息
固有亮度:
5
最大亮度:
2.5
卫星平台:
Starlink v1.5
覆盖范围:
全球
运营商:
太空探索技术公司
运营商所在国:
美国
制造商(研发单位):
太空探索技术公司
制造商所在国:
美国
使用方式:
暂无
卫星简介
星链(Starlink)计划是由太空探索技术公司(SpaceX)提出的一个巨型低轨卫星互联网星座项目,计划在2019年至2024年间在太空搭建由约1.2万颗卫星组成的“星链”网络,其中1584颗将部署在地球上空550千米处的近地轨道,并从2020年开始工作。该卫星仍在工作。
2D轨道图
3D轨道图
轨道高度分析图
轨道倾角分析图
轨道综合分析图
查看轨道综合分析图